Terminal Aerodrome Forecast
Issued by NWS Charleston, WV

Current Version | Previous Version | Graphics & Text | Print | Product List | Glossary On
Versions: 1 2 3 4 5 6 7 8 9 10 11 12 13 14 15 16 17 18 19 20 21 22 23 24 25 26 27
196
FTUS41 KRLX 200318 AAA
TAFPKB
TAF AMD
KPKB 200318Z 2003/2024 VRB03KT P6SM BKN180
      TEMPO 2004/2006 4SM BR
     FM200600 VRB03KT P6SM OVC080
     FM200900 12004KT 4SM -RA OVC030
     FM201100 14005KT 4SM -RA OVC018
     FM201400 19007KT P6SM OVC018
     FM201900 22007KT P6SM BKN025
     FM202200 21005KT P6SM BKN250=

USA.gov is the U.S. government's official web portal to all federal, state and local government web resources and services.